Location: Dal�� Lhota
(48.7500°N, 14.0167°E)
Time: 06:26:59
(UTC+00:00)

Transit 2A - Pass Details

Date: 03 August 2021
Orbit: 594 x 964 km, 66.7° (Epoch: 24 September)

Event Time Altitude Azimuth Distance (km) Brightness Sun altitude
Rises 05:48:13 0° 232° (SW) 2,851 8.5 19.2°
Reaches altitude 10° 05:50:28 10° 239° (WSW) 1,976 7.7 19.6°
Maximum altitude 05:54:44 46° 313° (NW) 871 6.3 20.3°
Drops below altitude 10° 05:59:23 10° 27° (NNE) 2,148 8.8 21.1°
Sets 06:01:55 0° 34° (NE) 3,129 9.7 21.5°
